Location: Boiro
(42.6475°N, 8.8834°W)
Time: 21:18:25
(UTC+02:00)

UKube-1 - Pass Details

Date: 28 April 2024
Orbit: 584 x 591 km, 98.3° (Epoch: 20 May)

Event Time Altitude Azimuth Distance (km) Brightness Sun altitude
Rises 02:56:54 0° 23° (NNE) 2,833 ? -32.8°
Reaches altitude 10° 02:59:17 10° 34° (NE) 1,925 ? -32.8°
Enters shadow 03:00:38 18° 47° (NE) 1,472 ? -32.7°
